www.pogodaiklimat.ru

Погода и климат >> Архив погоды >> Россия >> Нижегородская область >> Шахунья


ПОГОДА в Шахунье

  • Прогноз погоды в Шахунье
  • Монитор погоды в Шахунье
  • Климат города

АРХИВ ПОГОДЫ в Шахунье

Время (UTC), дата Ветер
(напр.,м/с)
 
Видим.   Явления Облачность Т
(С)
Тd
(С)
f
(%)
Тe
(С)
Тes
(С)
Комфортность P
(гПа)
Po
(гПа)
Тmin
(С)
Tmax
(С)
R
(мм)
R24
(мм)
S
(см)
00 8.12 Ю 1-1
{2}
4000 м 10/0
[Ac As]
-10.0 -11.3 90 -12 -12 1016.9 994.0
03 8.12 Ю 1-2
{2}
4000 м 10/0
[Ac As]
-9.4 -11.5 85 -12 -12 1017.2 994.4 -11.7 13
06 8.12 штиль 0
{2}
50 км 8/0
[Ac As]
-9.0 -11.0 85 -10 -10 1018.1 995.3
09 8.12 Ю 2-3
{3}
50 км 8/0
[Ac As]
-8.2 -11.9 75 -13 -12 1018.4 995.7
12 8.12 Ю 1-2
{3}
50 км 9/0
[Ac und]
-7.1 -9.6 82 -9 -9 1018.9 996.2
15 8.12 Ю 1-2
{3}
4000 м 10/10 300 м
[St]
-6.9 -8.5 88 -9 -9 1019.4 996.7 -6.9
18 8.12 ЮВ 2-3
{3}
4000 м 10/10 300 м
[St]
-6.2 -7.7 89 -11 -11 1019.0 996.3
21 8.12 ЮВ 2-3
{3}
4000 м 10/10 300 м
[St]
-5.5 -7.3 87 -10 -10 1019.0 996.3
00 9.12 ЮВ 2-3
{3}
4000 м 10/10 300 м
[St]
-5.3 -6.7 90 -10 -10 1018.9 996.2
03 9.12 ЮВ 2-3
{4}
4000 м 10/10 300 м
[St]
-5.4 -6.8 90 -10 -10 1018.2 995.6 -6.9 13
06 9.12 ЮВ 2-3
{3}
20 км 10/10 200 м
[St]
-5.3 -6.3 93 -10 -10 1018.1 995.7
09 9.12 ЮВ 2-3
{4}
10 км 10/10 200 м
[St]
-4.2 -5.4 91 -8 -8 1017.7 995.3
12 9.12 ЮВ 1-1
{3}
10 км в посл. час снег 10/8 300 м
[St Ac As]
-5.2 -5.9 95 -8 -8 1017.2 994.7
15 9.12 Ю 2-4
{4}
4000 м 10/10 300 м
[St]
-4.9 -5.9 93 -9 -9 1016.9 994.4 -3.0 0.0
18 9.12 Ю 3-5
{5}
4000 м слабый снег 10/10 300 м
[St]
-4.4 -5.3 93 -10 -10 1016.6 994.2
21 9.12 Ю 2-3
{5}
4000 м {снег} 10/10 200 м
[St]
-4.4 -5.3 93 -9 -9 1016.4 994.0
00 10.12 Ю 3-6
{6}
4000 м {снег} 10/10 200 м
[St]
-4.6 -5.5 93 -10 -10 1016.2 993.7
03 10.12 Ю 4-6
{7}
4000 м слабый снег 10/10 200 м
[St]
-4.3 -5.2 93 -11 -11 1015.2 992.8 -4.9 0.0 13
06 10.12 ЮВ 4-6
{8}
4000 м слабый снег 10/10 200 м
[Frnb Ns]
-4.1 -5.0 93 -11 -11 1014.4 992.1
09 10.12 Ю 5-8
{8}
4000 м слабый снег 10/10 200 м
[Frnb Ns]
-3.4 -5.1 88 -10 -10 1014.0 991.8
12 10.12 Ю 4-7
{9}
4000 м слабый снег 10/10 200 м
[Frnb Ns]
-2.7 -4.0 91 -9 -9 1013.9 991.8
15 10.12 Ю 4-8
{8}
4000 м слабый снег 10/10 200 м
[Frnb Ns]
-2.2 -3.1 94 -8 -8 1014.5 992.4 -2.2 3
18 10.12 Ю 4-7
{8}
4000 м слабый снег 10/10 200 м
[Frnb Ns]
-1.8 -2.6 94 -8 -8 1015.6 993.4
21 10.12 Ю 5-7
{8}
4000 м {снег} 10/10 200 м
[St]
-1.4 -2.5 92 -8 -8 1017.0 994.9
00 11.12 Ю 4-5
{8}
4000 м слабый снег 10/10 200 м
[St]
-1.2 -2.2 93 -7 -7 1018.3 996.2
03 11.12 Ю 3-6
{6}
4000 м {снег} 10/10 200 м
[St]
-1.4 -2.5 92 -6 -6 1018.9 996.8 -2.2 1 13
06 11.12 Ю 3-5
{6}
10 км слабый снег 10/10 200 м
[St]
-1.5 -2.9 90 -7 -7 1020.2 997.9
09 11.12 Ю 4-5
{7}
20 км слабый снег 10/10 300 м
[St]
-1.5 -3.5 86 -7 -7 1020.5 998.3
12 11.12 ЮВ 4-6
{7}
20 км слабый снег 10/10 200 м
[Frnb Ns]
-1.6 -2.7 92 -8 -8 1020.8 998.6
15 11.12 ЮВ 5-8
{8}
4000 м слабый снег 10/10 200 м
[Frnb Ns]
-2.0 -3.2 91 -9 -9 1020.7 998.4 -1.4 2
18 11.12 ЮВ 5-7
{9}
4000 м слабый снег 10/10 200 м
[Frnb Ns]
-3.2 -4.6 90 -10 -10 1020.8 998.4
21 11.12 Ю 4-7
{7}
4000 м слабый снег 10/10 200 м
[Frnb Ns]
-4.1 -5.3 91 -10 -10 1021.7 999.2
00 12.12 ЮВ 3-4
{7}
4000 м слабый снег 10/10 200 м
[Frnb Ns]
-4.3 -5.5 91 -10 -10 1022.0 999.5
03 12.12 Ю 3-4
{5}
4000 м {снег} 10/10 200 м
[St]
-4.5 -5.8 91 -10 -10 1021.6 999.1 -4.5 2 14
06 12.12 Ю 2-3
{5}
20 км слабый снег 10/10 200 м
[St]
-4.5 -5.8 91 -9 -9 1022.1 999.6
09 12.12 ЮВ 2-3
{4}
10 км слабый снег 10/10 300 м
[Frnb Ns]
-3.9 -5.4 89 -8 -8 1022.0 999.5
12 12.12 ЮВ 1-2
{3}
10 км слабый снег 10/10 300 м
[Frnb Ns]
-3.7 -4.8 92 -6 -6 1021.9 999.5
15 12.12 ЮВ 1-2
{2}
4000 м слабый снег 10/10 300 м
[Frnb Ns]
-3.7 -4.8 92 -6 -6 1021.9 999.5 -3.6 2
18 12.12 СВ 1-2
{2}
4000 м слабый снег 10/10 300 м
[Frnb Ns]
-3.7 -4.5 94 -6 -6 1021.7 999.3
21 12.12 СВ 2-4
{4}
4000 м слабый снег 10/10 300 м
[Frnb Ns]
-3.6 -4.4 94 -8 -8 1022.2 999.8
00 13.12 СВ 2-4
{4}
4000 м слабый снег 10/10 300 м
[Frnb Ns]
-3.8 -5.0 91 -8 -8 1023.1 1000.7
03 13.12 СВ 3-4
{5}
4000 м слабый снег 10/0
[As op]
-3.8 -5.0 91 -9 -9 1023.4 1001.0 -3.9 2 21
06 13.12 СВ 3-5
{7}
10 км слабый снег 10/0 600 м
[As op]
-3.7 -4.8 92 -9 -9 1025.3 1002.8 -4.0
09 13.12 СВ 3-6
{6}
10 км слабый снег 10/0
[As op]
-3.0 -4.7 88 -8 -8 1026.1 1003.5
12 13.12 СВ 3-6
{9}
10 км слабый снег 10/0
[As op]
-2.8 -4.4 89 -8 -8 1027.0 1004.4
15 13.12 СВ 4-7
{9}
4000 м 10/10 300 м
[St]
-3.4 -4.8 90 -10 -10 1028.7 1006.0 -2.8 0.0
18 13.12 В 4-8
{9}
4000 м 10/10 300 м
[St]
-3.7 -5.2 89 -10 -10 1030.0 1007.3
21 13.12 СВ 4-7
{9}
4000 м 10/10 300 м
[St]
-4.1 -5.7 89 -10 -10 1030.2 1007.5
00 14.12 В 3-7
{8}
4000 м 10/10 300 м
[St]
-3.9 -5.4 89 -9 -9 1030.6 1007.9
03 14.12 СВ 3-6
{8}
4000 м 10/10 300 м
[St]
-4.2 -5.4 91 -10 -10 1030.7 1008.0 -4.2 0.0 21
06 14.12 В 3-5
{6}
50 км 10/10 300 м
[St]
-4.0 -5.2 91 -9 -9 1030.8 1008.1
09 14.12 СВ 3-5
{7}
50 км 10/10 300 м
[St]
-4.0 -4.9 93 -9 -9 1030.9 1008.2
12 14.12 СВ 3-6
{7}
50 км {снег} 10/10 300 м
[St]
-4.7 -5.7 93 -10 -10 1030.8 1008.1
15 14.12 СВ 3-5
{6}
4000 м 10/10 200 м
[St]
-5.3 -6.3 93 -11 -11 1030.7 1007.9 -4.0 0.0
18 14.12 СВ 2-4
{6}
4000 м 10/10 200 м
[St]
-6.5 -7.3 94 -11 -11 1030.4 1007.5
21 14.12 С 3-4
{5}
4000 м 10/10 200 м
[St]
-7.9 -9.7 87 -14 -14 1030.2 1007.2

 

Местоположение метеостанции Шахунья (Нижегородская область, Россия): широта 57.66 долгота 46.63 высота над уровнем моря 175 м.

В архиве по умолчанию представлена погода в Шахунье за последнюю неделю. Архивные данные за месяц целиком и за предыдущие месяцы, начиная с января 2011 года, Вы можете получить, выбрав интересующий диапазон дат из раскрывающегося списка и нажав кнопку "Ввод!".


*Определитесь, кто Вы:
робот инопланетянин человек

Внимание! Время в таблицах - всемирное. Для получения местного времени необходимо прибавить поправку, которая в Шахунье равна 3 ч.

Смотрите также архив погоды в соседних городах и на ближайших метеорологических станциях:

Погода в Ветлуге (Нижегородская область, Россия) (55 км)
Погода в Шабалино (Кировская область, Россия) (77 км)
Погода в Яранске (Кировская область, Россия) (84 км)
Погода в Санчурске (Кировская область, Россия) (86 км)
Погода в Шарье (Костромская область, Россия) (102 км)
Погода в Красных Баках (Нижегородская область, Россия) (106 км)
Погода в Воскресенском (Нижегородская область, Россия) (119 км)
Погода в Котельниче (Кировская область, Россия) (124 км)
Погода в Мантурово (Костромская область, Россия) (132 км)
Погода в Йошкар-Оле (Марий-Эл, Россия) (134 км)

Пояснения к столбцам:

Ветер - указаны скорость ветра в м/с - средняя за 10 мин, порывы в срок и между сроками (в фигурных скобках) и направление, откуда дует ветер: С - северный, СВ - северо-восточный, В - восточный, ЮВ - юго-восточный, Ю - южный, ЮЗ - юго-западный, З - западный, СЗ - северо-западный.
Видимость - горизонтальная дальность видимости в метрах или километрах. При видимости от 1 до 10 км при отсутствии осадков обычно наблюдается дымка, при ухудшении видимости до 1 км и менее - туман. В сухую погоду видимость может ухудшаться дымом, пылью или мглою.
Явления - указаны атмосферные явления, наблюдавшиеся в срок или в последний час перед сроком; фигурными скобками обозначены явления, наблюдавшиеся между сроками (за 1-3 часа до срока); квадратными скобками обозначены град или гололедные отложения с указанием их диаметра в мм.
Облачность - указаны через наклонную черту общая и нижняя облачность в баллах и высота нижней границы облаков в метрах; квадратными скобками обозначены формы облаков: Ci - перистые, Cs - перисто-слоистые, Cc - перисто-кучевые, Ac - высококучевые, As - высокослоистые, Sc - слоисто-кучевые, Ns - слоисто-дождевые, Cu - кучевые, Cb - кучево-дождевые. Подробнее классификацию облаков см. в Атласе облаков (PDF).
T - Температура воздуха - температура, измеренная на высоте 2 м над землей.
Td - Температура точки росы - температура, при понижении до которой содержащийся в воздухе водяной пар достигнет насыщения.
f - Относительная влажность воздуха - влажноcть воздуха, измеренная на высоте 2 м над землей.
Te - Эффективная температура - температура, которую ощущает одетый по сезону человек в тени. Характеристика душности погоды. При расчете учитывается влияние влажности воздуха и скорости ветра на теплоощущения человека.
Tes - Эффективная температура на солнце - температура, которую ощущает человек, с поправкой на солнечный нагрев. Характеристика знойности погоды. Зависит от высоты солнца над горизонтом, облачности и скорости ветра. Ночью, в пасмурную погоду, а также при ветре 12 м/с и более поправка равна нулю.
P - Атмосферное давление - приведенное к уровню моря атмосферное давление.
Po - Атмосферное давление - измеренное на уровне метеостанции атмосферное давление.
Tmin - Минимальная температура - минимум температуры воздуха на высоте 2 м над землей.
Tmax - Максимальная температура - максимум температуры воздуха на высоте 2 м над землей.
R - Количество осадков - Количество выпавших осадков за период времени, мм. При наведении курсора мыши на число - период времени, за который выпало указанное количество осадков.
R24 - Количество осадков - Количество выпавших осадков за 24 часа, мм.
S - Снежный покров - Высота снежного покрова, см. При наведении курсора мыши на число - состояние снежного покрова и степень покрытия местности в баллах.